RH
16 16 16 16 16 17 18 19 20 21 23 24 24 24 24 22 21 21 21 22 23 28 33 37 45 59 65 56 38 25 20 22 25 26 26 27 28 31 31 29 28 27 27 28 28 28 28 28 29 30 31 32 32 32 32 30 29 28 27 27 27 27 27 27 27 27 27 26 26 25 24 23 21 20
10 10 10 10 10 11 11 12 12 13 14 15 17 19 20 20 20 20 20 21 23 25 27 29 32 40 53 60 53 37 24 19 21 24 26 26 25 28 31 29 28 28 27 27 27 27 27 27 28 29 31 32 34 34 33 32 30 29 28 27 27 27 27 26 26 27 27 27 27 27 26 26 24 23
8 8 8 8 8 8 8 8 8 8 9 9 10 11 12 14 14 16 17 18 21 24 26 28 29 30 35 45 51 47 37 26 20 20 24 26 25 25 28 29 27 28 28 27 27 27 27 27 27 29 30 31 33 33 33 33 31 30 29 28 28 28 27 27 27 26 26 26 27 28 28 28 27 26
7 7 7 7 7 7 7 7 7 7 7 7 7 7 8 8 9 10 11 12 15 19 23 25 27 29 27 30 37 42 42 37 27 20 19 23 25 24 25 26 26 27 28 28 28 27 27 27 27 28 29 30 32 32 32 32 31 31 30 29 29 29 28 28 28 27 27 26 27 28 29 29 29 29
6 6 6 6 6 6 5 6 6 6 6 6 6 6 6 6 7 7 7 8 9 12 18 21 23 26 26 25 27 32 35 37 35 27 20 18 22 24 25 25 25 26 27 27 28 28 27 27 27 28 29 30 30 31 30 30 30 30 30 30 29 29 29 28 29 29 28 28 28 29 29 29 29 29
4 4 5 5 5 5 5 4 4 5 5 5 5 5 5 5 5 6 6 6 6 7 10 15 18 21 24 24 24 25 27 30 33 31 25 20 19 21 23 24 25 25 26 26 27 27 28 28 28 28 29 30 30 30 30 29 29 29 29 30 30 29 29 29 29 29 28 28 29 29 29 29 29 29
4 3 3 4 4 4 4 3 4 4 4 4 4 4 4 5 5 5 5 5 5 6 6 9 11 14 18 21 23 23 23 24 27 28 27 23 20 20 20 22 24 25 25 25 25 26 27 27 28 28 28 29 30 30 30 29 29 29 29 30 30 30 31 30 30 29 29 29 29 29 29 29 30 30
3 3 3 3 3 3 3 3 3 3 3 3 3 3 3 4 4 4 4 5 4 5 5 6 7 9 11 15 19 21 21 21 23 24 25 24 22 21 21 20 21 23 24 25 25 25 26 26 27 27 27 27 27 28 28 28 28 28 28 29 29 30 31 31 31 31 30 30 29 29 29 29 29 29
3 3 3 3 3 3 3 3 3 3 3 2 2 3 3 3 3 3 3 4 4 4 5 5 6 7 7 9 12 16 19 20 21 22 22 23 22 22 22 21 20 21 22 23 24 24 25 25 25 26 26 26 26 26 26 26 27 27 27 28 28 29 30 30 31 31 30 30 30 29 29 28 28 28
4 3 4 3 3 3 3 3 3 3 3 2 2 2 2 2 2 2 2 3 3 3 4 4 5 5 6 6 8 10 13 16 19 20 21 21 22 21 21 21 21 21 21 21 22 22 23 24 25 25 25 25 26 26 26 26 26 26 26 27 27 28 29 30 30 31 30 30 30 29 28 27 26 26
3 4 4 4 3 3 3 3 3 3 3 3 2 2 2 2 2 2 2 2 2 2 3 3 4 4 5 5 6 7 8 10 13 16 19 20 21 22 21 21 21 20 21 21 21 21 21 23 24 24 25 25 25 26 26 26 26 26 26 27 27 28 28 29 29 29 29 29 29 28 27 26 25 25
3 3 3 3 3 3 3 3 3 3 3 3 3 2 2 2 2 2 2 2 2 2 2 3 3 3 4 4 5 6 6 7 7 9 13 16 18 20 21 21 20 20 21 21 21 21 21 21 22 23 24 25 25 25 25 25 25 26 26 26 27 27 27 28 28 28 28 28 28 27 26 26 25 23
2 2 2 2 3 2 3 3 3 3 3 2 3 3 3 3 2 2 2 2 2 2 2 3 2 3 3 3 4 5 5 6 6 6 7 9 12 15 18 20 21 21 21 21 21 21 21 21 21 22 23 24 24 25 25 25 25 25 26 26 26 27 27 27 27 27 27 27 26 26 25 25 24 23
2 2 2 2 2 2 2 2 2 2 2 2 2 2 2 2 2 3 2 2 3 2 2 2 2 2 3 3 3 4 4 5 5 6 6 6 7 9 11 14 17 19 21 21 21 21 21 21 21 22 22 22 23 23 23 24 24 24 25 25 25 26 26 26 26 26 26 26 25 25 25 24 23 23
2 2 2 2 2 2 2 2 2 2 2 2 2 2 2 2 2 2 2 2 2 3 3 2 2 3 3 3 3 3 3 4 4 5 5 5 6 5 6 8 10 13 16 18 20 20 21 21 21 22 22 22 22 22 22 23 23 23 23 23 24 24 24 25 25 25 25 25 24 24 24 24 23 22
2 2 2 2 2 2 2 2 2 1 1 1 1 1 1 2 2 2 2 2 2 2 3 3 3 3 3 3 3 3 3 3 3 3 4 4 5 5 5 6 6 7 9 11 14 17 19 20 21 21 22 22 22 22 22 22 22 22 22 22 23 23 23 23 23 23 23 23 24 23 22 23 22 21
2 2 2 2 2 2 2 2 2 1 2 1 1 1 1 1 1 2 2 2 2 2 3 3 3 3 3 3 3 3 3 3 2 3 3 3 4 4 5 5 5 5 6 6 8 10 13 15 17 19 20 21 21 21 22 22 22 22 22 22 22 21 21 21 20 21 21 20 21 21 20 21 20 19
2 2 2 2 2 2 2 2 2 2 2 2 1 1 2 1 1 2 2 2 2 2 2 2 3 3 3 3 3 3 3 3 3 2 2 3 3 3 4 4 4 5 5 6 6 7 8 8 9 11 13 15 16 17 18 19 20 20 21 20 21 20 20 20 19 19 18 17 17 17 17 17 17 17
2 2 2 2 2 2 2 2 2 2 2 2 2 2 2 2 2 2 2 2 2 2 2 2 2 3 3 3 3 3 3 2 3 2 2 3 2 3 3 3 3 4 4 5 5 6 6 6 6 7 7 8 10 10 12 13 14 15 16 16 16 17 17 17 17 16 16 15 14 13 13 13 12 12
2 2 2 2 2 2 2 2 2 2 2 2 2 2 2 2 2 2 2 2 1 2 2 2 2 2 3 3 3 3 3 3 3 2 2 3 3 3 3 3 3 3 3 4 4 5 5 5 6 6 6 6 7 7 7 8 8 9 9 10 10 11 11 12 12 12 11 11 11 10 9 9 8 8
2 2 2 2 2 2 2 2 1 2 2 2 2 2 2 2 2 2 2 2 2 2 2 2 2 2 2 2 2 2 2 2 3 3 3 3 3 3 3 3 3 3 3 3 3 4 4 4 5 5 6 6 6 6 6 6 7 7 7 7 7 7 7 8 7 8 8 7 8 7 7 6 6 6
1 2 2 2 2 2 2 2 2 1 2 2 2 2 2 2 2 2 2 2 2 2 2 2 2 2 2 2 2 2 2 2 3 3 3 3 3 3 3 3 3 3 3 3 3 3 3 4 4 4 4 5 5 5 6 6 6 6 6 6 7 6 7 7 6 7 6 6 6 6 6 6 5 5
1 2 2 2 2 2 1 1 1 1 2 2 2 2 2 2 2 2 2 2 2 2 2 2 2 2 2 2 2 2 2 2 2 3 3 3 3 3 4 3 3 4 4 4 4 4 3 3 4 4 3 4 4 4 5 5 5 5 5 5 6 6 6 6 6 6 6 6 6 6 5 6 5 5
2 2 2 1 1 1 1 1 1 1 2 2 2 2 2 2 2 2 2 2 2 2 2 2 2 2 2 2 2 2 2 2 2 2 3 3 3 3 3 4 4 4 4 4 4 4 4 3 3 4 3 3 4 4 4 4 4 4 5 5 5 5 5 5 5 5 5 5 5 5 5 5 6 5
2 2 2 1 1 1 1 1 1 1 2 2 2 2 2 2 2 2 2 2 2 2 2 3 3 2 2 2 2 2 2 2 2 2 3 3 3 3 3 3 4 4 4 4 4 4 4 4 3 4 4 4 4 3 4 4 4 4 4 4 5 5 4 5 5 4 5 5 4 5 5 5 6 5
2 2 1 1 1 1 1 1 1 2 2 2 2 2 2 2 2 2 2 2 2 3 3 3 2 2 2 2 2 2 2 2 2 2 2 3 2 3 3 3 4 4 4 5 5 4 5 4 4 4 4 4 4 3 3 4 3 4 4 4 4 4 4 4 4 4 5 5 4 5 5 4 5 5
2 2 1 2 1 1 1 1 1 2 2 2 2 2 2 2 2 2 2 2 3 3 3 3 2 2 2 2 2 3 2 2 2 2 2 2 2 2 3 3 4 4 4 5 5 5 5 5 5 5 5 4 4 4 4 4 3 3 4 3 4 4 4 4 4 4 4 5 4 4 5 5 4 5
2 2 1 2 1 1 2 2 1 2 2 2 2 2 2 2 2 2 3 2 3 3 3 3 2 2 2 2 3 3 3 3 3 2 2 2 2 2 3 3 4 4 5 5 5 5 5 5 5 5 5 5 5 5 4 4 4 3 4 4 3 4 4 3 4 4 4 4 5 4 4 5 4 4
2 2 1 2 2 2 2 2 2 2 2 2 2 2 2 2 2 2 2 2 2 3 2 2 2 2 3 3 3 4 4 3 3 3 3 3 3 3 3 3 4 4 5 5 5 5 5 6 6 6 6 5 5 5 4 4 4 4 4 4 3 3 4 3 3 4 4 3 4 4 4 4 4 4
2 2 2 2 2 2 2 2 2 2 2 2 2 2 2 2 2 2 2 2 2 3 2 2 3 3 3 4 4 4 4 3 3 3 3 3 3 3 3 3 4 4 4 5 5 5 5 6 6 6 6 6 5 5 5 5 5 4 4 4 4 3 4 4 3 3 4 4 4 4 4 4 4 4
2 2 2 2 2 2 2 2 2 2 2 2 2 2 2 2 2 2 2 2 2 2 3 3 3 4 4 4 4 4 4 4 4 4 3 3 3 3 3 3 3 4 4 5 5 6 6 6 6 6 6 6 6 5 6 5 5 5 4 4 4 4 3 4 4 3 4 4 4 4 4 4 4 4
2 2 2 2 2 2 2 2 2 2 2 2 2 2 2 2 2 2 2 2 2 3 3 4 4 4 4 4 4 4 4 4 4 4 4 3 3 3 3 3 3 3 4 5 5 6 6 5 6 6 5 6 6 5 6 5 5 5 5 4 4 4 3 4 4 3 4 4 4 4 4 4 4 4
2 2 2 2 2 2 2 2 2 2 2 2 2 2 2 2 2 2 2 2 3 3 4 4 4 4 4 4 4 4 4 4 4 4 4 3 4 4 3 4 4 3 4 5 5 5 6 5 6 6 5 6 6 5 5 6 5 5 5 4 4 4 4 4 4 4 4 4 4 4 4 4 4 4
2 2 2 2 2 2 2 2 2 2 2 2 2 2 2 2 2 2 2 3 3 3 3 3 3 4 4 4 5 4 4 5 4 4 4 4 4 4 4 3 4 4 4 5 5 5 6 6 5 6 6 5 6 5 5 5 5 5 5 5 4 4 4 4 4 4 4 4 4 4 4 4 4 4
2 2 2 2 2 2 2 2 2 2 2 2 2 2 2 2 2 2 2 3 3 3 3 3 3 4 4 4 5 4 4 5 4 4 5 4 4 4 4 4 4 4 4 5 5 5 6 6 6 6 6 5 5 6 6 5 6 6 5 5 5 4 4 4 4 4 4 4 4 4 4 4 4 4
3 3 3 2 3 2 2 2 2 2 2 2 2 3 2 2 3 3 2 3 3 3 3 3 3 4 4 4 4 4 4 5 5 5 5 4 4 4 4 4 4 4 4 5 5 5 5 6 6 5 5 6 6 6 6 6 5 6 5 5 5 5 4 4 4 4 4 4 4 4 4 4 4 4
3 3 3 3 3 3 3 3 2 2 2 2 2 3 3 3 3 3 3 3 3 3 4 4 4 4 4 4 5 5 5 6 5 5 4 4 4 4 4 4 4 4 5 5 5 5 5 5 6 6 6 6 6 6 6 6 6 6 5 5 5 5 5 5 4 4 5 4 4 4 4 4 4 4
3 3 3 3 3 3 3 3 3 2 2 3 3 3 3 3 3 3 4 3 4 4 4 4 5 5 5 5 5 6 6 6 5 5 4 4 5 5 4 5 5 5 5 5 5 5 6 5 6 6 6 6 6 6 6 6 6 6 6 5 5 5 5 5 5 4 5 5 4 4 4 4 4 4
4 4 4 4 4 4 4 3 3 3 3 3 3 3 3 3 3 3 4 4 4 5 4 5 5 5 5 6 6 6 6 5 5 5 5 5 5 5 5 5 5 5 5 5 5 6 6 6 7 7 6 7 7 7 7 7 6 6 6 5 5 5 5 5 5 5 5 5 4 5 4 4 4 4
4 4 4 4 4 4 4 4 4 4 3 3 3 3 3 3 3 4 4 4 5 5 5 5 6 6 6 6 6 6 6 6 5 5 5 5 5 5 5 5 6 5 5 6 6 6 7 7 7 7 7 8 8 7 7 7 6 6 6 6 6 6 6 6 6 5 5 5 5 5 5 4 4 5
5 4 4 5 4 4 4 4 4 4 4 3 4 3 3 4 4 4 5 5 5 6 6 6 6 6 6 7 7 7 6 6 6 6 6 6 6 6 6 6 6 6 6 7 7 7 7 8 8 8 8 8 8 8 7 7 7 7 7 6 6 6 6 6 6 5 5 6 5 5 5 5 4 5
5 5 5 5 5 4 5 5 4 5 5 4 4 4 4 4 4 4 5 5 5 6 6 6 6 7 7 7 7 7 7 7 7 6 7 7 7 7 7 7 7 7 7 8 8 8 9 9 9 9 8 8 8 8 8 8 8 8 8 7 7 7 7 7 7 6 6 6 6 5 5 5 5 5
5 5 5 5 5 5 5 5 5 5 5 5 5 5 4 4 5 5 5 6 6 6 7 7 7 8 8 8 7 7 7 7 7 7 7 7 8 8 8 8 8 8 8 9 9 9 9 9 9 8 8 8 9 9 8 9 8 8 8 8 8 8 8 7 7 7 6 6 6 6 6 5 5 5
6 6 5 6 6 5 5 6 6 6 6 6 6 6 5 5 5 5 5 6 6 7 7 8 8 8 8 8 8 8 8 8 8 8 8 8 9 9 8 8 9 9 9 10 10 9 9 9 8 8 8 8 9 8 8 8 8 8 9 9 8 8 8 7 7 7 7 7 7 6 6 6 6 5
6 6 6 6 6 6 6 6 6 6 7 7 7 7 6 6 6 6 6 6 7 8 8 9 9 9 9 9 9 8 9 9 9 9 9 9 9 10 10 10 10 10 10 10 10 9 9 8 7 8 8 8 8 8 8 9 9 9 9 9 9 8 8 8 8 8 8 8 7 7 6 6 6 6
Wind_Speed
135 135 134 134 132 131 131 132 131 131 130 130 130 129 128 126 123 120 117 116 114 114 114 114 112 112 113 115 115 114 113 112 113 115 116 115 116 118 119 120 120 119 118 117 116 115 114 114 113 113 112 110 110 109 109 108 107 106 106 105 104 104 103 102 102 101 100 100 99 98 98 99 99 101
133 132 131 131 130 129 129 130 129 129 129 130 130 130 130 129 128 125 122 120 118 118 119 119 118 117 116 117 119 119 117 115 115 118 119 119 119 120 122 124 123 122 121 120 119 118 118 117 116 116 115 114 113 113 112 112 110 109 109 108 107 106 106 105 105 104 103 102 102 101 100 100 100 102
131 130 129 128 127 126 126 126 125 125 126 126 127 128 128 129 129 127 126 123 121 121 124 124 124 123 121 121 122 122 121 120 119 120 122 123 123 123 125 127 126 125 124 123 122 121 121 120 119 119 118 117 117 116 115 115 114 113 112 111 110 109 109 108 107 107 106 105 104 103 102 102 102 103
130 129 128 127 126 126 125 123 122 122 122 123 123 123 124 125 126 126 126 124 121 122 127 129 129 130 128 126 126 126 125 124 123 123 125 126 126 126 127 129 129 128 127 126 125 124 123 123 122 121 121 120 119 119 119 118 117 116 115 114 113 112 112 111 110 109 108 107 106 106 105 105 106 106
128 127 126 126 125 125 124 122 120 120 120 120 120 121 121 121 121 122 123 123 120 121 127 132 132 134 134 132 130 130 130 128 128 128 128 128 129 129 130 130 131 130 130 129 128 127 126 125 125 124 123 123 122 122 122 121 120 119 118 117 116 116 115 114 113 112 112 110 109 109 109 109 109 109
125 124 123 123 124 124 122 120 119 119 119 119 119 119 118 118 117 118 119 119 118 119 124 130 133 135 138 137 136 135 135 133 132 132 132 131 131 131 132 133 133 133 133 132 131 131 129 128 128 127 126 125 125 124 124 124 123 122 121 120 119 119 118 118 117 116 115 114 113 113 112 112 111 111
122 121 120 120 121 121 120 118 117 117 117 117 117 117 116 116 115 116 116 116 116 116 119 125 130 134 138 140 140 141 140 138 137 136 135 135 134 134 135 135 135 136 136 135 134 133 132 131 131 130 129 128 127 127 127 126 126 125 124 123 122 122 121 121 120 120 119 118 117 117 116 115 115 114
119 119 118 117 117 117 116 115 115 115 115 114 114 114 113 114 113 114 115 115 114 113 114 119 125 130 134 138 141 144 144 142 141 140 139 139 138 138 138 138 137 137 138 138 137 136 135 134 134 133 132 131 130 130 130 130 129 128 127 126 125 124 124 124 123 123 122 122 121 120 120 119 119 118
116 115 115 115 115 114 113 113 113 113 113 111 110 110 110 111 111 111 112 112 112 111 111 114 119 124 129 133 138 142 145 145 145 145 144 143 142 141 141 141 140 139 139 140 140 139 138 137 136 136 135 134 133 133 133 133 132 131 130 129 128 128 127 127 126 126 126 125 125 124 124 123 123 122
112 112 112 112 112 112 112 111 111 111 111 110 108 107 106 107 107 107 108 108 108 109 109 110 115 120 123 127 131 137 142 145 147 148 148 147 146 145 144 144 144 143 142 142 142 141 140 140 139 138 137 136 136 136 136 136 135 135 134 133 132 131 131 131 130 130 130 129 129 128 128 127 127 126
109 108 109 109 109 110 110 109 110 109 109 109 107 105 104 104 104 104 104 104 105 105 106 108 111 115 118 121 125 131 137 140 144 147 149 150 150 149 148 147 147 146 145 144 144 143 142 141 141 140 139 138 138 138 139 139 138 138 137 136 135 135 134 134 134 134 134 133 133 132 132 131 131 130
105 105 105 105 106 106 106 107 107 107 107 106 106 105 104 102 102 101 101 101 101 101 102 105 107 111 114 117 120 125 130 134 138 142 146 149 152 153 152 151 149 148 147 147 146 145 143 143 142 142 142 141 141 141 142 142 142 141 140 139 139 138 138 138 138 138 138 137 137 136 136 135 134 133
100 100 100 101 101 102 103 103 104 104 104 103 103 102 103 102 100 99 99 99 98 98 99 101 104 107 110 112 116 120 124 128 133 137 140 144 148 151 153 153 152 151 149 149 148 148 146 145 145 144 144 144 145 145 145 145 145 144 144 143 142 142 141 141 142 142 141 141 141 140 139 139 138 137
95 95 95 96 97 98 99 100 101 101 101 100 99 99 100 100 98 97 97 97 97 98 98 99 101 103 105 107 111 116 120 124 129 133 134 136 140 143 146 149 151 152 152 151 150 150 149 149 148 147 147 147 148 149 149 149 148 148 147 146 145 145 145 145 145 145 145 145 144 144 143 142 141 140
91 91 91 91 93 94 95 96 97 97 97 97 96 96 97 97 96 95 95 95 95 96 97 98 99 100 102 105 109 113 115 119 124 128 129 130 133 135 137 139 143 147 149 151 152 152 152 151 151 150 150 151 151 152 152 151 151 150 149 149 148 148 148 148 148 148 148 148 148 147 146 146 145 144
87 87 88 88 88 89 90 91 92 92 92 92 92 92 93 94 93 92 92 93 93 94 95 97 97 98 100 103 107 109 112 115 118 121 122 124 127 129 129 131 134 137 141 144 148 151 152 153 153 153 153 154 154 154 153 153 152 151 151 151 151 151 151 151 151 151 151 151 151 150 150 149 148 147
83 84 84 84 84 85 85 86 87 87 87 88 88 88 89 90 90 90 90 91 92 93 94 95 95 97 99 102 104 107 110 112 112 113 115 118 121 122 123 125 127 129 131 134 138 142 146 149 151 152 153 154 155 155 154 154 153 153 153 153 152 152 152 152 152 152 152 152 152 152 152 151 150 149
79 79 79 79 80 81 82 82 83 83 84 83 84 85 86 87 87 88 88 89 91 92 94 94 94 95 98 101 103 105 107 107 106 107 109 112 114 115 116 118 121 122 124 127 129 132 137 140 142 145 148 151 152 153 153 153 153 153 153 153 153 152 152 152 151 151 150 150 150 150 150 149 149 148
74 74 74 74 75 77 78 79 79 79 79 80 81 83 84 84 85 86 86 87 89 91 91 91 91 93 96 99 101 103 104 103 103 104 106 107 107 107 109 111 113 116 119 122 124 126 129 131 132 135 139 141 144 146 147 148 149 150 150 151 151 151 151 151 151 150 149 148 147 147 146 145 145 144
70 70 70 70 71 73 74 74 74 74 75 76 79 81 82 82 82 83 84 85 86 87 88 88 89 91 94 97 99 100 100 100 100 100 101 101 101 102 103 105 107 110 112 115 116 119 122 124 126 129 131 133 134 136 137 139 140 142 143 143 144 145 146 146 146 146 146 145 144 143 142 141 139 138
66 66 66 67 68 69 70 70 69 68 70 73 77 79 80 79 79 80 81 82 82 82 84 85 86 89 92 94 96 97 96 95 95 95 96 97 98 98 100 101 102 104 105 106 108 111 114 117 120 123 125 126 128 129 131 132 133 134 135 136 137 137 138 139 139 139 139 139 139 138 136 134 132 130
62 62 63 64 65 67 68 67 66 65 67 70 74 75 76 76 76 77 78 78 79 79 80 82 84 87 90 93 93 92 92 91 91 91 92 94 94 95 96 97 97 97 98 100 102 105 108 111 114 116 118 119 122 124 125 127 128 129 129 130 131 132 132 133 133 133 133 133 132 131 130 128 126 124
58 59 60 61 62 64 65 64 63 63 64 67 70 71 71 72 73 74 75 76 77 77 77 79 83 86 89 90 89 88 87 87 88 89 90 90 91 91 92 93 93 93 94 96 98 101 103 106 108 109 110 112 115 117 119 120 122 123 124 125 126 127 127 128 128 128 128 127 127 126 124 122 120 119
56 57 58 59 59 60 61 60 60 60 61 63 65 65 66 68 70 71 73 75 76 76 76 79 83 85 87 87 85 83 83 84 85 87 87 88 88 89 89 89 89 90 91 94 95 96 98 100 102 102 104 106 108 110 112 113 115 116 118 119 120 121 122 122 123 123 122 122 121 119 118 116 115 114
54 55 55 56 56 56 56 56 56 57 57 59 61 61 63 66 68 70 72 73 74 73 75 78 81 82 82 80 78 78 79 81 83 84 84 85 86 86 86 86 86 88 89 90 91 92 94 95 96 96 98 100 102 104 105 107 108 110 111 113 114 115 116 117 117 117 116 115 114 113 112 111 110 109
51 52 52 53 53 52 52 51 52 53 54 56 58 60 62 64 66 67 69 69 69 70 73 76 77 76 75 74 73 74 76 78 80 81 81 83 84 84 84 84 84 85 85 86 87 88 89 91 91 92 94 95 97 99 100 101 102 104 106 107 109 110 111 112 112 111 111 110 109 108 107 107 106 105
48 49 49 49 50 49 48 48 49 51 53 55 57 58 59 60 61 63 64 64 65 67 70 73 73 72 71 70 70 72 74 76 78 78 79 81 82 82 82 82 82 82 82 84 85 86 87 88 89 90 91 92 93 94 96 97 98 99 101 102 103 104 105 106 106 106 105 105 105 104 104 103 102 102
46 46 46 46 46 45 46 47 48 50 53 55 55 56 57 57 59 60 61 62 64 66 68 69 69 69 67 66 68 71 73 74 75 76 77 79 79 80 80 79 79 80 81 82 83 84 85 86 87 88 88 89 90 91 91 92 93 95 96 97 98 99 99 100 100 101 101 101 101 100 100 99 98 98
43 43 43 42 42 42 43 45 47 49 51 53 53 54 56 58 59 60 60 61 62 63 65 66 66 64 63 64 67 69 69 70 72 73 74 76 76 77 77 77 77 79 80 81 81 82 83 84 85 85 85 86 86 87 88 88 89 91 92 93 94 95 95 95 96 97 97 97 97 96 96 95 94 94
40 40 40 40 39 40 42 44 46 47 49 50 51 53 55 57 58 58 58 59 59 60 61 61 60 58 59 62 65 66 66 67 69 70 71 72 73 74 74 75 76 78 79 79 80 80 81 82 83 83 83 83 83 83 84 85 86 87 89 90 90 91 92 93 93 93 93 93 92 92 92 91 91 91
37 37 37 37 38 39 41 42 44 45 47 48 50 52 54 55 56 56 56 56 56 56 56 55 54 55 59 63 64 64 65 66 66 67 69 70 70 71 72 73 74 76 76 77 78 78 79 80 80 80 80 80 80 81 81 82 83 85 86 87 87 88 89 90 89 89 89 89 89 89 89 89 88 89
34 34 34 35 36 37 39 40 42 43 43 45 47 48 50 51 52 53 54 54 53 53 53 54 56 58 62 63 63 63 64 64 64 65 67 67 68 69 70 72 73 74 75 76 76 77 77 78 78 78 78 78 78 78 79 80 81 82 83 84 85 86 86 86 85 85 85 86 86 86 86 86 86 87
32 32 32 33 34 35 37 38 39 40 40 42 44 45 46 48 49 50 51 52 54 55 56 57 59 60 61 61 61 61 61 61 62 63 64 65 66 68 70 71 73 74 74 75 75 76 76 76 76 76 76 76 76 76 77 78 79 79 80 81 82 83 83 83 82 82 82 83 84 84 84 84 84 84
29 30 30 31 32 33 34 36 36 37 38 40 41 42 43 46 47 48 50 52 53 55 56 58 59 59 59 59 59 59 59 59 60 61 62 64 66 68 69 71 72 72 73 73 74 74 74 74 74 74 74 74 74 74 74 75 75 77 78 79 79 79 79 79 79 79 80 80 81 81 81 81 81 82
27 27 28 29 30 31 32 32 33 35 36 37 37 39 42 43 45 47 49 50 52 53 55 56 58 58 57 57 58 58 58 58 60 61 63 64 66 67 68 69 70 70 71 71 72 72 72 72 72 72 72 72 71 71 72 72 73 75 76 76 76 76 76 76 76 76 77 77 77 77 78 78 78 79
25 25 26 26 27 28 29 30 32 35 35 35 35 37 39 41 42 45 47 49 51 52 53 54 55 55 55 56 57 57 57 58 60 62 63 64 65 65 66 67 68 68 69 70 70 70 70 70 70 70 70 69 69 69 70 70 72 73 73 73 72 72 72 72 72 73 74 74 74 74 75 75 76 76
23 23 24 24 25 26 27 29 32 34 34 34 36 38 39 40 42 43 45 47 49 50 51 51 52 52 53 54 55 55 56 58 59 61 61 61 62 62 64 65 66 66 67 68 68 68 68 67 67 67 67 67 67 67 68 69 70 70 70 69 69 69 69 69 69 70 71 71 72 72 72 72 73 73
21 21 21 22 23 24 25 27 29 31 32 34 37 39 40 41 42 43 44 45 46 47 47 48 49 50 51 52 53 54 56 57 58 59 59 59 60 61 62 63 63 64 65 65 65 65 65 65 65 65 65 64 65 65 66 67 67 67 66 66 66 66 66 66 67 68 68 69 69 69 69 70 70 71
19 19 19 20 20 21 23 25 26 28 30 34 37 38 39 40 41 42 42 42 43 43 45 46 48 49 51 52 53 54 55 56 56 56 57 57 58 60 60 60 61 62 62 62 62 62 63 63 63 63 62 62 63 64 65 65 64 64 64 64 63 63 63 64 65 65 66 66 66 66 67 67 68 68
17 17 17 18 19 20 21 23 24 26 30 33 35 36 38 39 40 40 41 41 41 43 44 46 48 49 50 51 51 52 53 53 53 54 54 55 56 57 58 58 59 59 59 60 60 60 60 60 60 60 60 61 61 62 63 62 61 61 61 61 60 60 61 61 62 63 63 64 64 64 64 65 66 66
15 16 16 17 18 19 20 21 23 25 28 30 32 34 36 37 38 40 41 41 42 43 44 46 47 48 48 49 49 50 50 50 51 51 52 53 54 55 56 57 57 58 58 58 58 58 58 58 58 58 59 59 60 60 59 58 58 58 58 58 58 58 58 59 60 61 61 61 62 62 63 63 64 65
14 14 15 16 17 18 19 20 21 23 25 27 30 32 34 36 37 39 40 41 42 43 44 44 45 45 46 47 47 47 48 48 49 50 50 51 52 53 54 55 55 56 56 56 56 56 56 57 57 58 58 57 57 56 56 55 56 56 56 56 56 56 57 57 58 58 59 59 60 60 61 61 62 63
13 13 14 15 16 17 18 19 20 22 23 25 27 30 33 35 37 39 40 41 42 42 42 43 43 43 43 44 45 45 46 47 48 49 50 51 51 52 53 53 53 53 53 54 54 55 55 56 56 56 55 55 55 55 54 54 55 55 55 55 55 55 55 56 56 56 57 58 59 59 60 60 61 61
12 12 13 14 15 17 18 19 20 21 22 23 25 28 31 34 36 38 39 40 41 41 41 41 41 41 42 43 44 44 45 46 47 48 49 50 50 51 51 51 51 52 52 53 53 54 55 55 55 54 54 54 54 54 54 54 54 54 54 54 54 54 54 54 55 55 56 56 57 58 58 59 59 60
11 12 12 14 15 17 18 19 19 21 22 23 24 26 29 31 34 36 38 39 39 39 39 39 40 41 41 42 43 44 45 46 47 48 48 48 49 49 50 50 50 51 52 52 53 54 55 55 55 54 54 54 54 53 53 53 53 53 53 53 53 53 52 53 53 54 54 55 56 56 57 57 58 58
Wind_Direction
267 267 266 265 264 264 263 262 261 260 259 258 257 256 255 254 251 248 246 245 245 245 245 245 244 245 247 248 247 245 241 239 238 237 236 234 232 231 231 231 231 231 231 230 230 230 230 230 231 232 232 233 233 234 234 234 234 234 234 234 234 234 234 234 234 234 234 234 234 234 235 235 235 235
268 268 267 266 265 264 263 262 261 260 259 258 257 256 255 254 252 250 247 245 244 245 245 245 244 243 243 245 246 246 243 240 237 236 235 234 232 231 231 231 231 232 232 232 231 231 231 231 231 232 232 233 233 234 234 235 235 235 235 235 235 235 235 235 235 234 234 234 234 234 235 235 235 235
269 268 268 267 266 265 264 263 262 261 260 258 257 256 255 254 252 251 248 245 243 243 245 245 244 243 242 242 244 245 244 242 238 236 234 234 233 231 231 231 232 232 233 233 233 232 232 232 232 232 233 233 234 234 235 235 236 236 236 236 236 236 236 236 236 236 235 235 235 235 235 235 235 235
269 268 268 267 266 265 264 263 262 261 260 259 257 256 255 253 252 251 249 246 243 242 243 243 243 244 242 241 241 242 243 242 241 238 235 233 233 232 231 231 232 232 233 233 234 234 233 233 233 233 233 234 234 235 235 236 236 236 237 237 237 237 237 237 237 237 237 236 236 236 235 235 235 235
268 267 267 266 266 265 264 263 262 261 260 259 257 256 255 253 252 250 249 247 244 241 242 242 242 242 242 241 240 240 241 241 241 240 237 234 233 233 232 232 232 233 233 234 234 234 234 234 234 234 234 235 235 235 236 236 237 237 237 238 238 238 238 238 238 238 238 237 237 237 236 236 236 236
267 267 266 266 265 264 264 263 261 260 259 258 257 256 255 253 252 251 249 247 244 242 241 242 241 241 241 241 240 239 239 239 240 240 240 237 234 233 233 233 233 233 233 234 234 235 235 235 235 235 235 236 236 237 237 237 238 238 238 238 239 239 239 239 239 238 238 238 238 238 237 237 237 237
267 266 266 265 264 264 263 262 261 260 259 258 257 255 254 253 252 251 250 247 245 242 240 241 241 240 240 240 240 239 239 238 239 239 239 239 238 235 233 233 233 233 234 234 234 235 235 235 235 236 236 236 236 237 238 238 239 239 239 239 239 240 240 240 240 240 239 239 239 239 239 238 238 238
266 266 266 265 264 264 263 263 262 261 260 258 257 256 255 254 252 251 250 248 246 243 241 240 240 240 240 240 240 239 238 238 238 238 238 239 239 238 236 235 233 233 234 235 235 235 235 236 236 236 236 236 237 237 238 239 239 239 240 240 240 240 240 241 241 241 240 240 240 239 239 239 239 239
266 266 265 265 265 264 263 262 262 261 260 259 257 256 255 254 253 251 250 249 247 245 242 241 240 240 240 240 240 240 239 238 237 237 238 238 238 238 238 237 236 235 234 235 235 236 236 236 236 236 237 237 237 238 238 239 239 240 240 240 240 241 241 241 241 241 241 241 241 241 240 240 240 240
265 265 265 264 264 263 263 262 261 261 260 259 258 256 255 254 253 251 250 248 247 246 244 242 241 241 240 239 240 240 240 239 238 237 237 237 238 238 238 238 238 237 236 235 235 236 236 237 237 237 237 237 238 239 239 240 240 240 240 240 241 241 241 242 242 242 242 242 242 242 242 241 241 240
264 264 263 263 262 262 262 261 260 260 259 259 258 257 255 254 253 252 250 249 247 246 244 243 242 241 240 239 239 240 240 240 239 238 238 238 238 238 238 238 238 239 238 238 238 237 237 237 237 238 238 238 238 239 239 240 240 241 241 241 241 241 241 242 242 243 243 243 243 243 243 243 242 242
264 264 263 263 262 262 261 261 260 260 259 258 258 258 257 255 253 252 251 250 248 246 245 244 242 242 241 240 239 239 240 240 240 239 238 238 238 238 238 238 239 239 239 239 240 239 239 238 238 238 239 239 239 239 240 240 241 241 241 241 241 242 242 242 243 243 243 244 244 244 244 244 244 244
265 264 263 262 262 261 260 260 259 259 258 257 257 256 256 255 254 253 251 250 249 247 246 244 243 242 241 240 240 239 239 240 240 240 239 238 238 238 238 238 238 239 239 240 240 240 240 240 239 239 239 239 239 240 240 240 241 241 241 241 242 242 242 243 243 243 244 244 244 245 245 245 245 245
264 263 262 261 260 260 259 258 258 257 257 256 256 255 255 254 253 252 251 250 249 248 246 245 244 242 242 241 240 240 239 239 239 240 239 239 239 239 239 238 239 239 239 240 240 241 241 241 241 240 240 240 240 240 241 241 241 241 242 242 242 242 243 243 243 244 244 245 245 245 246 246 246 246
264 263 262 260 259 259 258 257 257 257 256 256 255 255 254 254 253 252 251 250 249 248 247 246 244 243 242 242 241 240 240 239 239 239 239 239 239 239 239 239 239 239 239 239 240 241 241 241 242 241 241 241 241 241 242 242 242 242 243 243 243 243 243 244 244 245 245 245 246 246 246 247 247 247
263 262 261 260 259 258 258 257 257 257 256 256 255 254 254 253 253 251 250 249 248 247 246 245 244 243 243 242 241 241 240 240 239 239 239 239 239 240 240 239 239 239 239 239 239 240 241 241 242 242 242 242 243 243 243 243 243 244 244 244 244 244 244 245 245 245 246 246 246 247 247 247 247 247
261 261 260 260 259 258 258 257 257 256 256 255 255 254 253 252 252 251 249 248 248 246 245 244 243 242 242 242 241 241 241 240 239 239 239 239 239 239 239 239 239 239 239 239 239 239 240 241 241 242 242 243 243 244 244 244 244 245 245 245 245 245 246 246 246 246 246 246 247 247 247 247 247 247
261 261 260 259 259 258 257 256 255 255 255 254 254 253 252 251 250 249 248 247 246 245 245 244 243 242 242 242 241 241 241 240 240 240 239 239 239 238 238 238 238 239 239 239 239 239 240 240 240 241 241 242 243 243 244 244 245 245 245 245 246 246 246 247 247 247 247 247 247 247 247 247 247 247
262 261 260 259 258 257 256 255 254 254 254 253 253 252 250 249 248 248 247 246 245 244 244 243 242 242 242 241 241 241 241 240 240 239 239 239 239 239 238 238 238 237 238 238 238 238 239 240 240 240 241 241 242 243 243 244 244 245 245 245 246 246 246 247 247 247 248 248 248 248 248 248 247 247
263 262 260 259 258 256 255 254 253 252 252 251 250 250 249 248 247 247 246 245 244 244 244 243 242 242 241 241 241 241 240 240 240 240 240 240 240 239 239 238 238 237 237 237 237 237 238 239 239 240 240 241 241 242 242 243 243 244 244 245 245 246 246 246 247 247 247 248 248 248 248 248 248 247
262 261 260 259 257 256 255 253 251 250 249 248 248 248 248 247 246 246 245 245 244 243 242 242 242 241 241 241 241 241 240 240 240 240 240 240 239 239 239 239 238 238 237 237 237 237 238 238 238 239 239 240 240 241 241 242 243 243 243 244 244 245 245 246 246 246 247 247 247 248 248 248 248 247
261 260 259 257 256 255 254 253 251 248 246 246 246 246 246 246 246 245 245 244 244 242 241 241 240 240 240 241 240 241 241 240 240 240 240 240 239 239 239 239 239 238 238 238 237 237 237 237 237 238 238 239 239 240 240 241 241 242 242 243 243 244 244 245 245 246 246 246 247 247 248 248 248 247
261 259 258 256 254 253 253 252 251 249 246 245 245 245 245 245 245 244 244 243 243 241 240 239 239 239 239 239 239 240 240 240 240 239 239 239 239 239 238 238 238 238 238 237 237 237 237 237 237 237 238 238 238 239 239 240 240 240 241 241 242 242 243 243 244 244 245 246 246 246 247 247 247 247
261 259 257 255 254 253 252 251 250 249 247 246 245 245 244 244 243 243 242 241 240 239 238 238 238 238 238 238 238 238 238 239 239 239 238 238 238 238 237 237 237 237 237 237 237 237 237 237 237 237 238 238 238 238 239 239 239 240 240 240 241 241 242 242 243 243 244 244 245 245 245 245 245 245
261 259 257 256 254 252 251 250 249 248 247 245 244 243 241 241 240 240 239 239 239 238 237 237 237 238 239 239 239 238 238 238 238 238 238 238 237 237 237 236 236 236 236 236 236 237 237 237 237 237 237 238 238 238 238 239 239 239 239 240 240 240 241 241 242 242 243 243 244 244 244 244 244 243
260 258 257 256 254 252 251 249 247 246 245 243 241 240 238 238 238 238 238 238 238 237 237 237 238 239 239 239 239 238 237 237 237 237 236 237 236 236 236 235 235 235 235 235 236 236 237 237 237 237 237 238 238 238 238 238 239 239 239 239 240 240 240 241 241 242 242 243 243 243 243 243 242 242
259 258 257 255 254 252 249 247 244 243 241 240 239 237 237 237 237 237 238 237 237 236 236 237 238 238 238 237 237 236 236 236 236 235 235 235 235 235 234 234 234 234 234 234 234 235 235 236 236 236 236 237 237 238 238 238 238 239 239 239 239 240 240 240 241 241 242 242 242 242 242 242 242 241
260 258 256 254 253 251 248 245 242 239 238 237 236 235 234 234 234 234 235 234 234 234 235 235 236 236 236 235 235 234 234 234 234 234 234 234 234 234 234 233 233 233 233 233 233 234 234 235 235 235 236 236 236 237 238 238 238 239 239 239 240 240 240 240 240 241 241 241 241 241 241 241 241 241
259 258 256 254 252 250 247 244 241 238 237 236 234 233 232 231 231 231 231 231 231 232 233 234 234 235 234 233 233 233 233 233 233 233 233 233 233 233 233 233 232 232 232 232 233 233 233 234 235 235 235 235 236 236 237 237 238 238 239 239 240 240 240 240 240 240 240 240 240 240 241 240 240 240
259 257 255 254 251 249 246 243 240 238 236 235 233 232 231 231 230 230 229 229 229 230 231 232 233 233 232 232 232 232 232 232 232 232 232 232 232 232 232 231 231 231 231 231 232 232 233 233 234 234 234 235 235 236 236 237 237 238 238 239 239 239 239 239 239 239 239 240 240 240 240 240 240 240
258 256 254 252 250 247 245 243 241 238 236 234 233 232 232 231 230 229 228 227 227 228 229 230 229 229 228 228 229 229 229 229 229 230 230 230 230 230 230 230 230 230 230 231 231 232 232 233 234 234 234 235 235 235 235 236 236 237 237 238 238 238 238 239 239 239 239 239 239 239 240 240 240 240
258 256 253 250 248 246 245 243 241 239 237 235 233 232 232 232 231 229 228 226 225 224 224 224 223 223 224 226 226 226 227 227 227 228 228 228 228 228 228 228 228 229 229 229 230 231 231 232 233 234 234 234 234 235 235 235 236 236 236 237 237 237 238 238 238 238 238 239 239 239 239 239 239 239
257 254 251 248 246 244 243 242 240 238 235 234 233 231 231 230 229 228 226 224 222 220 219 219 220 221 222 224 224 225 225 225 226 226 227 226 226 226 226 226 227 227 227 228 229 229 230 231 232 233 233 234 234 234 235 235 235 235 236 236 236 236 237 237 237 237 237 238 238 238 238 238 238 238
256 253 250 247 245 243 241 240 239 237 234 233 231 229 228 228 227 225 224 222 221 220 219 219 219 220 221 222 223 223 224 224 224 225 225 225 225 225 225 225 226 226 226 227 228 228 229 230 231 232 232 233 233 234 234 234 234 234 235 235 235 235 236 236 236 236 236 237 237 237 237 237 238 238
256 253 249 246 244 241 240 238 236 233 232 231 230 228 227 226 225 224 223 222 221 221 220 220 220 220 220 220 221 222 222 222 222 222 222 222 223 223 224 224 225 225 226 226 227 228 228 229 230 231 232 232 233 233 233 233 233 233 234 234 234 234 235 235 235 235 236 236 236 236 237 237 237 237
255 252 249 246 243 240 238 236 233 230 228 226 226 226 225 223 223 223 222 221 220 220 220 220 220 220 219 220 220 221 221 220 221 221 221 221 222 222 223 223 224 224 225 225 226 227 228 229 230 230 231 232 232 232 232 231 232 232 233 233 233 233 233 234 234 234 235 235 235 235 235 235 236 236
254 251 248 245 243 240 237 234 232 231 227 222 220 220 219 219 219 220 221 221 220 220 219 219 219 219 219 220 220 220 220 220 220 221 221 221 222 222 222 223 223 223 224 225 225 226 227 228 229 230 230 231 230 230 230 230 231 231 231 232 232 232 232 233 233 233 233 234 234 234 234 234 234 234
251 249 246 244 242 240 238 234 233 231 228 224 220 218 216 215 215 216 218 219 219 219 218 218 218 218 219 219 219 219 219 220 220 221 221 221 221 222 222 222 222 223 224 224 225 226 227 227 228 229 229 229 229 229 229 229 230 230 230 230 230 230 231 231 232 232 232 232 233 233 232 232 232 233
249 246 243 241 238 237 236 235 233 230 227 225 223 220 217 214 213 214 215 216 217 216 216 216 216 217 217 218 219 219 219 220 220 220 220 220 221 221 222 222 222 223 223 224 225 226 226 227 228 228 228 227 227 227 228 228 228 229 229 229 229 229 229 230 230 231 231 231 231 231 231 231 231 231
247 243 240 237 233 230 229 230 229 228 226 226 224 222 218 215 213 211 211 212 212 212 213 213 214 215 216 217 218 219 220 220 221 221 221 221 221 221 221 221 222 222 223 224 224 225 226 226 227 227 226 226 226 226 227 227 227 227 228 228 228 228 228 229 229 230 230 230 230 230 230 230 230 230
245 240 237 233 230 227 224 223 223 225 225 225 225 222 219 215 213 210 209 209 209 209 211 212 214 215 216 217 217 218 219 219 220 220 221 221 221 221 221 221 221 222 222 223 224 224 225 225 225 225 225 225 225 226 226 226 226 227 227 227 227 227 227 228 228 228 229 229 229 229 229 229 229 229
242 237 235 232 227 223 220 218 219 220 222 224 224 222 218 215 212 210 209 208 208 208 210 211 213 214 215 216 217 217 218 218 219 219 219 219 219 220 220 221 221 222 222 222 223 223 224 224 224 224 224 224 225 225 225 225 226 226 227 227 227 227 227 227 227 227 227 228 228 228 228 228 228 228
240 235 234 232 226 220 216 215 215 215 217 220 222 221 219 215 212 210 209 208 208 208 209 210 212 213 214 215 216 216 216 216 217 217 218 218 218 219 219 220 221 221 222 222 223 223 223 223 224 224 224 224 224 225 225 225 225 226 226 226 226 226 226 226 226 225 226 226 226 226 227 227 227 227
237 232 230 229 225 218 213 212 211 210 211 214 217 219 219 216 213 210 208 208 208 208 209 210 210 211 212 213 214 215 215 215 215 216 216 217 217 218 219 219 220 220 221 221 222 223 223 224 224 223 223 223 223 223 224 224 225 225 226 226 226 225 225 225 225 224 224 225 225 225 225 226 226 226
234 229 226 225 222 215 211 209 208 207 207 209 212 215 217 216 214 211 209 208 208 208 208 209 210 210 211 211 212 213 213 213 214 215 215 215 216 216 217 218 219 219 220 220 221 222 222 223 223 222 222 222 222 222 222 223 224 224 225 225 225 224 224 224 224 224 224 224 224 224 225 225 225 225